SCP
0 0 0 0 0 0 0 0 0 0 0 0 0 -0 -0 -0 -0 -0 0 -0 -0 -0 0 0 0 0 0 -0 0 0 -0 -0 -0 -0 0 0 0 0 0 0 0 0 0 0
0 0 0 0 0 0 0 0 0 0 0 0 0 -0 -0 -0 0 -0 -0 -0 0 0 0 0 0 -0 0 -0 -0 0 0 0 0 -0 0 0 0 0 0 0 0 0 0 0
0 0 0 0 0 0 0 0 0 0 0 0 -0 -0 -0 -0 -0 -0 -0 -0 -0 -0 -0 0 0 -0 -0 -0 -0 -0 -0 0 0 0 -0 0 0 0 0 0 0 0 0 0
0 0 0 0 0 0 0 0 0 0 0 0 -0 -0 -0 -0 -0 0 0 0 0 0 -0 -0 -0 0 -0 -0 -0 0 0 0 -0 0 -0 0 0 0 0 0 0 0 0 0
0 0 0 0 0 0 0 0 0 0 0 0 -0 -0 -0 -0 -0 -0 -0 0 -0 -0 0 -0 -0 -0 -0 -0 0 0 -0 0 0 -0 0 0 0 0 0 0 0 0 0 0
0 0 0 0 0 0 0 0 0 0 0 0 -0 -0 -0 -0 -0 0 0 -0 -0 0 0 -0 -0 -0 -0 -0 0 -0 0 0 0 0 0 0 0 0 0 0 0 0 0 0
0 0 0 0 0 0 0 0 0 0 0 -0 -0 -0 -0 -0 -0 -0 -0 0 0 0 -0 -0 -0 -0 -0 0 0 -0 0 0 0 0 0 0 0 0 0 0 0 0 0 0
0 0 0 0 0 0 0 0 0 0 0 -0 -0 -0 -0 0 0 0 0 -0 -0 -0 0 0 0 0 0 0 0 -0 -0 0 0 0 0 0 0 0 0 0 0 0 0 0
0 0 -0 0 0 0 0 0 0 0 0 0 -0 -0 0 0 0 0 0 -0 -0 -0 0 0 0 0 0 0 0 -0 0 0 0 0 0 0 0 0 0 0 0 0 0 0
0 -0 -0 -0 -0 -0 0 0 0 0 0 0 0 0 0 0 0 0 -0 -0 0 0 0 0 0 0 0 0 0 0 0 0 0 0 0 0 0 0 -0 0 0 0 0 0
0 -0 -0 -0 -0 -0 0 0 0 0 0 -0 0 0 0 0 0 0 0 0 0 0 0 0 0 0 0 0 0 0 0 0 0 0 0 0 0 0 0 -0 0 0 0 0
0 0 -0 -0 -0 -0 0 0 0 0 0 -0 -0 -0 -0 0 0 0 0 0 0 0 0 0 0 0 0 0 0 0 0 0 0 0 0 0 0 0 0 0 0 -0 -0 0
0 0 -0 -0 -0 -0 0 0 0 0 0 -0 -0 0 0 0 0 0 0 0 0 0 0 0 0 0 0 0 0 0 0 0 0 0 0 0 0 0 0 0 0 -0 0 0
0 0 -0 -0 -0 -0 -0 0 0 0 -0 -0 -0 0 -0 0 0 0 0 0 0 0 0 0 0 0 0 0 0 0 0 0 0 0 0 0 0 0 0 0 -0 -0 0 0
0 -0 -0 -0 -0 -0 0 0 0 0 -0 -0 -0 -0 0 0 0 0 0 0 0 0 0 0 0 0 0 0 0 0 0 0 0 0 0 0 0 0 0 -0 -0 -0 -0 -0
-0 -0 -0 -0 0 0 0 0 0 0 0 -0 -0 0 -0 -0 -0 0 0 0 0 0 0 0 0 0 0 0 0 0 0 0 0 0 0 0 0 0 0 -0 -0 -0 -0 -0
-0 -0 -0 -0 -0 0 0 0 0 0 0 0 -0 -0 -0 0 0 0 0 0 0 0 0 0 0 0 0 0 0 0 0 0 0 0 0 -0 0 0 0 -0 -0 -0 -0 -0
-0 -0 -0 -0 0 0 -0 -0 -0 -0 -0 -0 0 -0 -0 -0 0 0 0 0 0 0 0 0 0 0 0 0 0 0 0 -0 -0 -0 0 0 0 0 -0 -0 -0 -0 -0 -0
-0 -0 -0 0 0 -0 -0 -0 0 -0 -0 -0 -0 -0 -0 -0 0 0 0 0 0 0 0 0 0 0 0 0 0 0 0 -0 -0 -0 -0 -0 -0 -0 -0 -0 -0 -0 -0 -0
-0 0 0 0 -0 0 0 -0 -0 -0 -0 -0 -0 -0 -0 0 0 0 0 0 0 0 0 0 0 0 0 0 0 0 -0 0 -0 -0 -0 -0 -0 -0 -0 -0 -0 -0 -0 -0
0 0 0 0 -0 -0 -0 -0 -0 -0 -0 -0 -0 -0 -0 0 0 0 0 0 0 0 0 0 0 0 0 0 0 0 0 0 0 -0 -0 -0 -0 -0 -0 -0 -0 -0 -0 -0
0 -0 -0 0 -0 -0 -0 -0 -0 -0 -0 0 -0 -0 -0 0 0 0 0 0 0 0 0 0 0 0 0 0 0 0 0 0 -0 -0 -0 -0 -0 -0 -0 -0 -0 -0 -0 -0
0 0 -0 -0 -0 -0 0 0 0 -0 -0 -0 -0 -0 0 -0 -0 0 0 0 0 0 0 0 0 0 0 0 0 0 -0 -0 0 0 0 0 0 -0 -0 -0 -0 -0 -0 -0
0 0 0 0 0 0 0 -0 0 0 -0 -0 -0 0 -0 0 0 0 0 0 0 0 0 0 0 0 0 0 0 0 0 -0 -0 -0 0 0 0 -0 -0 -0 -0 -0 -0 -0
0 -0 0 0 0 0 0 -0 -0 -0 -0 -0 -0 0 0 0 0 0 0 0 0 0 0 0 0 0 0 0 0 0 0 0 -0 -0 -0 -0 -0 -0 -0 0 0 0 0 0
-0 -0 0 0 0 0 -0 -0 -0 -0 -0 -0 -0 0 0 0 0 0 0 0 0 0 0 0 0 0 0 0 0 0 0 0 -0 -0 -0 -0 -0 -0 -0 0 0 0 0 -0
0 0 0 0 -0 -0 -0 -0 -0 -0 -0 -0 -0 -0 -0 0 0 0 0 0 0 -0 0 0 0 0 0 0 0 0 0 0 -0 -0 -0 -0 -0 -0 -0 -0 -0 -0 -0 -0
Wind_Speed_500mb
57 57 59 63 69 77 81 29 8 44 47 20 11 15 25 45 25 39 14 17 7 7 13 10 8 8 7 33 22 12 8 4 9 12 19 29 42 55 52 28 19 4 5 8
54 55 60 62 63 68 71 32 12 30 35 16 20 27 27 25 24 34 11 10 7 18 17 12 12 14 15 26 27 10 5 4 7 6 9 20 40 44 48 37 8 16 12 10
51 54 56 58 57 60 52 20 10 15 13 36 24 37 19 28 51 28 44 22 15 33 30 7 20 25 14 51 34 40 8 6 11 11 10 6 31 47 58 32 18 21 9 20
49 47 49 55 54 52 42 19 7 8 15 22 32 35 20 42 28 13 36 11 28 38 14 39 12 21 35 20 27 8 4 10 14 23 22 29 51 47 48 40 36 21 19 13
46 37 46 50 52 48 32 14 11 14 22 32 32 22 21 36 38 25 27 19 52 43 31 35 49 35 9 13 12 14 19 7 6 12 21 34 53 44 47 35 25 22 27 15
44 34 39 44 47 46 24 36 34 17 21 16 21 17 36 42 45 28 33 43 42 38 36 31 45 47 37 31 23 9 7 5 7 5 2 30 37 49 35 44 34 19 19 16
39 38 35 39 40 38 37 40 43 12 16 22 25 41 38 48 48 39 69 68 29 28 76 82 51 44 33 33 31 25 16 8 4 6 7 8 12 40 34 28 21 16 22 33
40 43 40 30 36 39 37 35 30 10 18 35 31 39 43 62 54 42 45 66 53 69 47 8 9 3 5 17 24 30 27 7 6 6 3 18 20 38 31 33 10 7 28 33
39 39 35 22 35 39 38 34 27 27 22 7 53 44 46 31 27 21 21 65 52 24 5 5 6 5 3 3 4 20 15 12 2 8 7 6 9 3 25 23 13 12 39 46
38 36 34 31 36 36 34 35 27 28 25 36 35 30 27 23 15 12 32 32 19 12 6 5 5 5 8 4 2 5 4 4 7 8 7 10 16 18 44 24 14 34 56 63
37 39 34 32 31 30 37 39 32 24 27 74 34 33 45 53 38 11 44 21 2 6 12 6 7 5 6 3 4 5 4 3 4 2 9 9 32 7 12 13 38 59 56 52
38 39 39 38 32 25 35 43 39 37 43 69 78 50 27 33 46 47 10 15 18 9 6 5 7 5 6 6 4 12 9 10 6 11 6 9 17 17 33 38 61 56 62 65
38 38 40 42 37 33 28 44 43 35 31 55 18 20 43 43 33 26 13 16 14 14 23 8 5 7 6 9 11 5 11 19 8 5 19 28 37 36 36 40 62 62 63 72
34 39 42 41 38 34 26 36 37 25 21 11 23 50 34 28 33 43 46 55 55 51 45 4 4 5 10 9 11 11 13 8 8 14 22 43 54 46 54 67 68 69 67 69
35 39 41 41 33 30 28 28 19 14 11 9 32 59 27 52 60 38 30 25 38 32 5 3 4 6 6 5 9 13 23 7 4 9 39 46 37 43 51 70 71 67 77 70
36 40 44 40 30 24 18 3 7 12 15 12 8 23 34 63 56 31 34 31 20 12 8 4 8 8 9 8 8 21 43 45 14 18 55 65 59 60 51 73 68 68 77 74
36 41 43 29 19 14 6 2 8 15 22 7 11 14 17 44 40 30 33 31 25 18 12 19 16 27 20 7 8 21 40 48 49 48 49 51 43 42 62 79 78 78 72 68
38 39 31 14 8 10 3 3 10 17 11 7 6 10 19 29 19 15 29 22 19 32 15 11 11 15 14 10 12 25 40 56 52 53 64 66 60 62 62 67 70 70 63 59
37 29 14 7 5 2 4 14 13 14 9 5 4 8 10 28 15 13 17 13 5 15 12 9 11 9 12 8 12 27 23 38 52 53 57 55 60 55 51 53 51 58 52 51
26 13 4 4 5 22 8 1 3 5 5 6 6 7 8 15 11 7 19 8 5 7 8 11 8 6 32 21 22 25 35 46 46 59 47 51 48 45 42 42 43 47 49 47
21 15 6 15 8 6 3 4 3 2 5 6 9 9 11 9 7 7 11 5 6 6 8 6 7 9 13 17 23 28 31 14 27 38 39 40 45 44 46 44 45 45 44 45
24 15 13 12 5 2 3 2 1 4 3 6 9 15 9 11 8 5 7 6 5 6 14 5 5 8 26 20 26 25 15 30 38 35 39 37 39 40 43 43 43 42 44 45
5 4 6 3 1 5 6 5 4 4 5 4 15 11 7 5 5 5 5 8 6 7 6 5 5 15 21 13 21 18 23 38 44 44 43 43 42 39 41 44 42 42 43 41
3 3 5 2 2 1 2 3 5 9 11 23 20 12 3 6 7 4 5 7 4 5 6 5 4 19 13 7 16 22 33 33 42 44 44 43 41 39 36 36 36 37 40 37
4 2 4 3 4 11 11 11 13 11 20 24 14 7 4 3 2 5 5 5 7 4 3 4 16 20 4 9 21 28 41 38 35 39 41 41 38 36 36 34 32 34 39 36
4 5 5 6 6 7 6 8 13 10 22 14 3 4 4 7 5 4 7 2 3 3 3 21 23 8 6 14 25 36 41 42 36 38 39 40 37 33 35 33 31 31 32 32
4 4 8 13 16 16 13 12 12 18 12 5 4 5 7 5 3 5 2 2 2 5 11 17 8 4 12 18 29 31 34 35 38 37 35 35 34 30 33 34 31 31 31 30
Wind_Direction_500mb
353 354 356 353 352 352 360 357 350 355 6 26 355 345 323 305 315 330 296 288 313 347 297 299 292 260 269 322 343 271 240 236 259 224 183 242 202 192 195 189 195 192 188 128
351 355 356 352 350 358 352 341 303 351 13 14 350 336 323 330 333 324 322 298 345 349 329 307 297 301 294 338 340 295 220 236 292 182 107 244 194 195 198 199 156 192 167 128
352 357 358 354 350 357 0 352 340 335 355 355 336 334 329 332 331 305 334 290 292 339 324 314 299 293 313 331 315 299 249 245 245 263 267 282 181 192 194 193 190 170 155 134
352 360 1 358 352 357 8 3 343 298 320 335 329 327 305 331 342 317 319 282 316 331 300 310 254 307 316 310 355 1 299 271 257 261 255 253 184 184 174 187 200 199 166 138
353 358 359 358 355 352 3 353 336 297 290 311 323 336 328 321 323 321 303 294 308 306 288 279 288 290 298 283 348 7 343 280 306 289 266 195 181 181 186 183 171 138 187 158
353 354 352 356 358 351 346 345 329 284 291 322 330 327 322 310 322 305 289 298 304 299 295 284 281 275 268 261 283 317 290 311 337 297 346 147 175 176 181 192 204 170 160 143
344 351 346 346 354 348 337 337 326 302 305 316 321 307 314 313 310 293 294 300 294 282 304 299 283 262 248 241 245 238 262 324 297 284 132 187 142 170 158 154 169 154 95 142
339 340 348 338 346 343 331 331 323 299 303 303 302 318 312 309 308 294 288 292 299 304 306 289 299 239 202 216 227 222 217 227 277 254 140 106 109 177 158 158 99 113 112 130
335 342 345 339 339 340 332 328 328 299 303 300 314 309 309 309 314 305 285 312 320 314 293 294 300 338 334 2 265 208 163 116 164 295 76 93 101 173 195 126 161 174 138 147
332 340 335 331 329 335 328 321 329 303 277 288 302 301 301 295 288 277 302 335 322 332 321 308 317 319 348 287 306 184 147 148 210 231 101 73 3 309 155 169 169 154 156 156
329 332 329 323 319 325 328 317 325 300 281 294 280 289 287 285 285 282 301 318 217 298 348 341 339 295 335 324 322 189 145 173 58 353 89 87 350 304 158 115 120 134 143 134
321 327 328 325 316 315 324 313 322 312 283 278 304 302 296 284 291 276 276 272 288 268 323 310 304 291 303 293 22 25 41 31 79 47 41 10 26 65 109 116 118 116 119 125
319 325 324 324 323 310 309 302 312 314 294 311 305 315 333 323 311 303 264 289 285 285 291 299 258 292 293 359 16 87 70 40 73 90 35 62 69 76 95 110 110 119 122 128
320 325 326 324 321 318 295 297 306 300 293 290 290 322 334 336 327 320 298 289 307 298 295 263 267 284 339 15 37 49 18 45 75 108 106 77 59 81 106 105 106 109 113 121
319 323 321 322 319 318 305 298 296 276 292 286 293 317 345 352 347 345 321 319 308 301 310 328 327 293 339 21 38 22 347 322 39 57 74 91 80 89 101 105 107 112 115 112
322 321 319 317 315 315 320 5 99 6 312 301 301 309 314 351 353 7 354 351 335 307 316 334 326 322 349 47 53 0 53 69 82 93 91 91 89 90 100 104 108 110 112 117
321 319 318 312 309 302 295 194 309 327 325 275 291 294 300 336 345 346 352 2 3 3 5 14 351 14 33 44 48 22 65 78 88 97 98 75 86 93 102 108 112 114 112 115
321 321 318 311 306 283 236 299 310 323 301 279 290 287 315 340 333 335 347 347 358 16 3 25 1 17 44 44 58 82 75 80 76 90 102 105 106 105 104 108 115 111 110 114
326 322 310 287 239 309 281 280 280 271 244 286 282 302 317 327 330 328 335 351 10 336 35 27 9 18 33 360 2 17 57 103 110 100 102 106 106 110 112 114 113 113 115 116
336 337 311 245 279 307 313 213 253 229 230 241 258 266 288 326 323 320 348 3 16 11 43 319 41 74 50 35 43 92 99 110 115 113 112 114 110 113 114 114 115 116 118 119
360 352 326 322 335 32 325 278 260 199 265 218 258 275 303 322 324 319 2 340 351 24 358 14 34 21 5 65 103 108 105 91 110 114 116 118 121 121 119 117 117 118 120 122
333 320 325 345 16 295 277 251 275 268 318 310 294 312 282 303 320 298 360 346 331 52 327 40 61 8 11 87 125 128 72 123 122 121 120 119 119 122 123 123 123 124 125 125
332 298 300 318 301 22 357 358 318 306 298 306 328 328 317 313 346 307 334 4 37 300 34 57 47 11 19 99 130 126 130 133 128 126 124 125 126 126 127 127 126 127 127 129
304 349 306 254 326 207 254 269 294 303 282 315 323 319 341 332 338 355 348 7 310 57 40 45 2 352 3 121 155 141 144 141 135 130 126 122 121 120 122 123 127 130 128 127
265 215 262 255 325 288 276 287 292 294 306 320 318 291 283 1 358 9 330 25 55 43 0 277 321 319 336 158 166 166 167 157 149 146 140 134 130 128 128 130 132 136 134 132
232 237 269 280 284 302 319 306 302 340 331 329 314 334 3 49 346 24 39 4 11 340 288 301 318 325 174 175 174 174 170 165 166 161 154 147 139 135 132 133 138 139 136 134
234 259 269 279 281 272 283 305 312 330 335 353 328 18 32 290 12 38 46 331 308 200 300 327 337 212 172 176 169 171 172 177 170 166 163 154 149 146 140 138 143 144 140 136
Wind_Speed_850mb
57 57 59 63 69 77 81 29 8 44 47 20 11 15 25 45 25 39 14 17 7 7 13 10 8 8 7 33 22 12 8 4 9 12 19 29 42 55 52 28 19 4 5 8
54 55 60 62 63 68 71 32 12 30 35 16 20 27 27 25 24 34 11 10 7 18 17 12 12 14 15 26 27 10 5 4 7 6 9 20 40 44 48 37 8 16 12 10
51 54 56 58 57 60 52 20 10 15 13 36 24 37 19 28 51 28 44 22 15 33 30 7 20 25 14 51 34 40 8 6 11 11 10 6 31 47 58 32 18 21 9 20
49 47 49 55 54 52 42 19 7 8 15 22 32 35 20 42 28 13 36 11 28 38 14 39 12 21 35 20 27 8 4 10 14 23 22 29 51 47 48 40 36 21 19 13
46 37 46 50 52 48 32 14 11 14 22 32 32 22 21 36 38 25 27 19 52 43 31 35 49 35 9 13 12 14 19 7 6 12 21 34 53 44 47 35 25 22 27 15
44 34 39 44 47 46 24 36 34 17 21 16 21 17 36 42 45 28 33 43 42 38 36 31 45 47 37 31 23 9 7 5 7 5 2 30 37 49 35 44 34 19 19 16
39 38 35 39 40 38 37 40 43 12 16 22 25 41 38 48 48 39 69 68 29 28 76 82 51 44 33 33 31 25 16 8 4 6 7 8 12 40 34 28 21 16 22 33
40 43 40 30 36 39 37 35 30 10 18 35 31 39 43 62 54 42 45 66 53 69 47 8 9 3 5 17 24 30 27 7 6 6 3 18 20 38 31 33 10 7 28 33
39 39 35 22 35 39 38 34 27 27 22 7 53 44 46 31 27 21 21 65 52 24 5 5 6 5 3 3 4 20 15 12 2 8 7 6 9 3 25 23 13 12 39 46
38 36 34 31 36 36 34 35 27 28 25 36 35 30 27 23 15 12 32 32 19 12 6 5 5 5 8 4 2 5 4 4 7 8 7 10 16 18 44 24 14 34 56 63
37 39 34 32 31 30 37 39 32 24 27 74 34 33 45 53 38 11 44 21 2 6 12 6 7 5 6 3 4 5 4 3 4 2 9 9 32 7 12 13 38 59 56 52
38 39 39 38 32 25 35 43 39 37 43 69 78 50 27 33 46 47 10 15 18 9 6 5 7 5 6 6 4 12 9 10 6 11 6 9 17 17 33 38 61 56 62 65
38 38 40 42 37 33 28 44 43 35 31 55 18 20 43 43 33 26 13 16 14 14 23 8 5 7 6 9 11 5 11 19 8 5 19 28 37 36 36 40 62 62 63 72
34 39 42 41 38 34 26 36 37 25 21 11 23 50 34 28 33 43 46 55 55 51 45 4 4 5 10 9 11 11 13 8 8 14 22 43 54 46 54 67 68 69 67 69
35 39 41 41 33 30 28 28 19 14 11 9 32 59 27 52 60 38 30 25 38 32 5 3 4 6 6 5 9 13 23 7 4 9 39 46 37 43 51 70 71 67 77 70
36 40 44 40 30 24 18 3 7 12 15 12 8 23 34 63 56 31 34 31 20 12 8 4 8 8 9 8 8 21 43 45 14 18 55 65 59 60 51 73 68 68 77 74
36 41 43 29 19 14 6 2 8 15 22 7 11 14 17 44 40 30 33 31 25 18 12 19 16 27 20 7 8 21 40 48 49 48 49 51 43 42 62 79 78 78 72 68
38 39 31 14 8 10 3 3 10 17 11 7 6 10 19 29 19 15 29 22 19 32 15 11 11 15 14 10 12 25 40 56 52 53 64 66 60 62 62 67 70 70 63 59
37 29 14 7 5 2 4 14 13 14 9 5 4 8 10 28 15 13 17 13 5 15 12 9 11 9 12 8 12 27 23 38 52 53 57 55 60 55 51 53 51 58 52 51
26 13 4 4 5 22 8 1 3 5 5 6 6 7 8 15 11 7 19 8 5 7 8 11 8 6 32 21 22 25 35 46 46 59 47 51 48 45 42 42 43 47 49 47
21 15 6 15 8 6 3 4 3 2 5 6 9 9 11 9 7 7 11 5 6 6 8 6 7 9 13 17 23 28 31 14 27 38 39 40 45 44 46 44 45 45 44 45
24 15 13 12 5 2 3 2 1 4 3 6 9 15 9 11 8 5 7 6 5 6 14 5 5 8 26 20 26 25 15 30 38 35 39 37 39 40 43 43 43 42 44 45
5 4 6 3 1 5 6 5 4 4 5 4 15 11 7 5 5 5 5 8 6 7 6 5 5 15 21 13 21 18 23 38 44 44 43 43 42 39 41 44 42 42 43 41
3 3 5 2 2 1 2 3 5 9 11 23 20 12 3 6 7 4 5 7 4 5 6 5 4 19 13 7 16 22 33 33 42 44 44 43 41 39 36 36 36 37 40 37
4 2 4 3 4 11 11 11 13 11 20 24 14 7 4 3 2 5 5 5 7 4 3 4 16 20 4 9 21 28 41 38 35 39 41 41 38 36 36 34 32 34 39 36
4 5 5 6 6 7 6 8 13 10 22 14 3 4 4 7 5 4 7 2 3 3 3 21 23 8 6 14 25 36 41 42 36 38 39 40 37 33 35 33 31 31 32 32
4 4 8 13 16 16 13 12 12 18 12 5 4 5 7 5 3 5 2 2 2 5 11 17 8 4 12 18 29 31 34 35 38 37 35 35 34 30 33 34 31 31 31 30
Wind_Direction_850mb
353 354 356 353 352 352 360 357 350 355 6 26 355 345 323 305 315 330 296 288 313 347 297 299 292 260 269 322 343 271 240 236 259 224 183 242 202 192 195 189 195 192 188 128
351 355 356 352 350 358 352 341 303 351 13 14 350 336 323 330 333 324 322 298 345 349 329 307 297 301 294 338 340 295 220 236 292 182 107 244 194 195 198 199 156 192 167 128
352 357 358 354 350 357 0 352 340 335 355 355 336 334 329 332 331 305 334 290 292 339 324 314 299 293 313 331 315 299 249 245 245 263 267 282 181 192 194 193 190 170 155 134
352 360 1 358 352 357 8 3 343 298 320 335 329 327 305 331 342 317 319 282 316 331 300 310 254 307 316 310 355 1 299 271 257 261 255 253 184 184 174 187 200 199 166 138
353 358 359 358 355 352 3 353 336 297 290 311 323 336 328 321 323 321 303 294 308 306 288 279 288 290 298 283 348 7 343 280 306 289 266 195 181 181 186 183 171 138 187 158
353 354 352 356 358 351 346 345 329 284 291 322 330 327 322 310 322 305 289 298 304 299 295 284 281 275 268 261 283 317 290 311 337 297 346 147 175 176 181 192 204 170 160 143
344 351 346 346 354 348 337 337 326 302 305 316 321 307 314 313 310 293 294 300 294 282 304 299 283 262 248 241 245 238 262 324 297 284 132 187 142 170 158 154 169 154 95 142
339 340 348 338 346 343 331 331 323 299 303 303 302 318 312 309 308 294 288 292 299 304 306 289 299 239 202 216 227 222 217 227 277 254 140 106 109 177 158 158 99 113 112 130
335 342 345 339 339 340 332 328 328 299 303 300 314 309 309 309 314 305 285 312 320 314 293 294 300 338 334 2 265 208 163 116 164 295 76 93 101 173 195 126 161 174 138 147
332 340 335 331 329 335 328 321 329 303 277 288 302 301 301 295 288 277 302 335 322 332 321 308 317 319 348 287 306 184 147 148 210 231 101 73 3 309 155 169 169 154 156 156
329 332 329 323 319 325 328 317 325 300 281 294 280 289 287 285 285 282 301 318 217 298 348 341 339 295 335 324 322 189 145 173 58 353 89 87 350 304 158 115 120 134 143 134
321 327 328 325 316 315 324 313 322 312 283 278 304 302 296 284 291 276 276 272 288 268 323 310 304 291 303 293 22 25 41 31 79 47 41 10 26 65 109 116 118 116 119 125
319 325 324 324 323 310 309 302 312 314 294 311 305 315 333 323 311 303 264 289 285 285 291 299 258 292 293 359 16 87 70 40 73 90 35 62 69 76 95 110 110 119 122 128
320 325 326 324 321 318 295 297 306 300 293 290 290 322 334 336 327 320 298 289 307 298 295 263 267 284 339 15 37 49 18 45 75 108 106 77 59 81 106 105 106 109 113 121
319 323 321 322 319 318 305 298 296 276 292 286 293 317 345 352 347 345 321 319 308 301 310 328 327 293 339 21 38 22 347 322 39 57 74 91 80 89 101 105 107 112 115 112
322 321 319 317 315 315 320 5 99 6 312 301 301 309 314 351 353 7 354 351 335 307 316 334 326 322 349 47 53 0 53 69 82 93 91 91 89 90 100 104 108 110 112 117
321 319 318 312 309 302 295 194 309 327 325 275 291 294 300 336 345 346 352 2 3 3 5 14 351 14 33 44 48 22 65 78 88 97 98 75 86 93 102 108 112 114 112 115
321 321 318 311 306 283 236 299 310 323 301 279 290 287 315 340 333 335 347 347 358 16 3 25 1 17 44 44 58 82 75 80 76 90 102 105 106 105 104 108 115 111 110 114
326 322 310 287 239 309 281 280 280 271 244 286 282 302 317 327 330 328 335 351 10 336 35 27 9 18 33 360 2 17 57 103 110 100 102 106 106 110 112 114 113 113 115 116
336 337 311 245 279 307 313 213 253 229 230 241 258 266 288 326 323 320 348 3 16 11 43 319 41 74 50 35 43 92 99 110 115 113 112 114 110 113 114 114 115 116 118 119
360 352 326 322 335 32 325 278 260 199 265 218 258 275 303 322 324 319 2 340 351 24 358 14 34 21 5 65 103 108 105 91 110 114 116 118 121 121 119 117 117 118 120 122
333 320 325 345 16 295 277 251 275 268 318 310 294 312 282 303 320 298 360 346 331 52 327 40 61 8 11 87 125 128 72 123 122 121 120 119 119 122 123 123 123 124 125 125
332 298 300 318 301 22 357 358 318 306 298 306 328 328 317 313 346 307 334 4 37 300 34 57 47 11 19 99 130 126 130 133 128 126 124 125 126 126 127 127 126 127 127 129
304 349 306 254 326 207 254 269 294 303 282 315 323 319 341 332 338 355 348 7 310 57 40 45 2 352 3 121 155 141 144 141 135 130 126 122 121 120 122 123 127 130 128 127
265 215 262 255 325 288 276 287 292 294 306 320 318 291 283 1 358 9 330 25 55 43 0 277 321 319 336 158 166 166 167 157 149 146 140 134 130 128 128 130 132 136 134 132
232 237 269 280 284 302 319 306 302 340 331 329 314 334 3 49 346 24 39 4 11 340 288 301 318 325 174 175 174 174 170 165 166 161 154 147 139 135 132 133 138 139 136 134
234 259 269 279 281 272 283 305 312 330 335 353 328 18 32 290 12 38 46 331 308 200 300 327 337 212 172 176 169 171 172 177 170 166 163 154 149 146 140 138 143 144 140 136